Temp
23 23 23 23 23 23 23 23 23 22 22 22 22 22 22 22 22 22 22 22 22 22 22 22 21 21 21 21 21 22 22 22 21 21 21 21 21 21 22 22 22 21 21 21 22 22 22 22 21 21 21 21 21 21 21 21 20 20 20 20 20 19 19
23 23 23 23 23 23 23 23 23 23 22 22 22 22 22 22 22 22 22 22 22 22 22 22 22 21 21 21 21 22 22 22 22 21 21 21 21 21 21 21 22 22 22 22 22 22 22 22 22 21 21 21 21 21 21 21 21 21 21 20 20 20 20
23 23 23 23 23 23 23 23 23 23 23 22 22 22 22 22 22 22 22 22 22 22 22 22 22 22 21 21 21 21 22 22 22 21 21 21 21 21 21 21 21 22 22 22 22 22 22 22 22 22 22 21 21 21 21 21 21 21 21 21 21 20 20
23 23 23 23 23 23 23 23 23 23 23 23 22 22 22 22 22 22 22 22 22 22 22 22 22 22 22 21 21 22 22 22 22 22 22 21 21 21 21 21 21 22 22 22 22 22 22 22 22 22 22 21 21 21 21 21 21 21 21 21 21 21 21
23 23 23 23 23 23 23 23 23 23 23 23 22 22 22 22 22 22 22 22 22 22 22 22 22 22 22 22 22 22 22 22 22 22 22 22 21 21 21 21 22 22 22 22 22 22 22 22 22 22 22 22 22 21 21 21 21 21 21 21 21 21 21
24 23 23 23 23 23 23 23 23 23 23 23 23 22 22 22 22 22 22 22 22 22 22 22 22 22 22 22 22 22 22 22 22 22 22 22 21 21 21 22 22 22 22 22 22 22 22 22 22 22 22 22 22 22 22 22 22 21 21 21 21 21 21
24 23 23 23 23 23 23 23 23 23 23 23 23 22 22 22 22 22 22 22 22 22 22 22 22 22 22 22 22 22 22 22 22 22 22 22 21 21 22 21 22 22 22 22 22 22 22 22 22 22 23 22 22 22 22 22 22 22 21 21 21 21 21
24 24 24 23 23 23 23 23 23 23 23 23 23 22 22 22 22 22 22 22 21 22 22 22 22 22 22 22 22 22 22 22 22 22 22 21 21 21 21 21 21 22 22 22 22 23 23 23 23 23 23 23 23 23 22 22 22 22 22 22 22 21 21
24 24 24 24 23 23 23 23 23 23 23 23 23 23 22 22 22 22 22 22 21 21 22 22 22 22 22 22 22 22 22 22 22 22 22 21 21 21 21 21 21 21 22 22 22 22 23 23 23 23 23 23 23 23 23 23 23 22 22 22 22 22 22
25 24 24 23 23 23 23 23 23 23 23 23 23 23 22 22 22 22 22 22 21 21 22 22 22 22 22 22 22 22 21 21 21 22 22 22 22 21 21 21 21 21 21 22 22 22 22 23 23 23 23 23 23 23 23 23 23 23 23 23 22 22 22
23 24 24 23 23 23 23 23 23 23 23 23 23 23 23 22 22 22 22 22 22 22 22 22 22 22 22 22 22 22 22 21 21 21 22 22 22 22 22 21 21 21 21 21 21 22 22 22 23 23 23 23 23 23 23 23 23 23 23 23 23 23 23
19 20 22 23 23 23 23 23 23 22 22 23 23 23 23 23 22 22 22 22 22 22 22 22 21 21 21 21 22 22 22 22 21 21 21 22 22 22 22 22 21 21 21 21 21 21 22 22 22 23 23 23 23 23 23 23 23 23 23 23 23 23 23
15 16 18 19 21 22 23 23 23 22 22 22 22 22 22 22 22 22 22 22 22 22 22 22 21 21 21 21 21 22 22 22 21 21 21 21 22 22 22 22 22 22 22 21 21 21 22 22 22 22 23 23 23 23 23 23 23 23 23 23 23 23 23
15 15 16 17 18 19 21 22 22 22 22 22 22 22 22 22 22 22 22 22 22 22 22 22 21 21 21 21 21 22 22 22 22 22 22 22 22 22 22 22 22 22 22 22 22 21 22 22 22 22 23 23 23 23 23 23 23 23 23 23 23 23 23
14 14 15 15 16 16 17 19 20 21 22 22 22 22 22 23 22 22 22 22 22 22 22 21 21 21 21 21 21 22 22 22 22 22 22 22 22 22 21 22 22 22 22 22 22 22 22 22 22 22 23 23 23 23 23 23 23 23 23 23 23 24 24
14 14 14 15 15 16 16 17 18 19 21 21 22 22 23 23 23 23 22 22 22 22 22 21 21 21 21 21 21 22 22 22 22 22 22 21 22 22 21 21 21 21 22 22 22 22 22 22 22 22 22 22 23 23 23 23 23 23 23 23 24 24 24
13 14 14 15 15 16 16 16 17 18 19 19 20 21 22 22 23 23 23 22 22 22 22 21 21 21 21 21 22 22 22 22 22 22 22 22 22 22 21 21 21 21 21 21 21 22 22 22 22 22 22 22 22 23 23 23 23 23 23 23 24 24 24
13 13 14 15 15 16 16 16 16 17 17 18 18 20 21 22 22 23 23 22 22 22 22 22 22 21 21 21 22 22 22 22 22 22 22 22 22 22 22 21 21 21 21 21 21 21 21 21 21 21 21 21 22 22 22 23 23 23 23 23 23 24 24
12 13 15 15 15 15 16 16 16 16 17 17 18 18 19 21 22 22 22 22 22 22 22 21 21 21 22 22 22 22 22 22 22 22 22 22 22 22 22 22 21 21 21 21 21 20 20 20 21 21 21 21 21 21 22 22 23 23 23 23 24 24 24
12 13 14 15 15 15 16 16 16 16 17 17 17 18 18 19 20 21 22 22 22 22 22 21 21 20 21 22 22 22 22 22 22 22 22 22 22 22 22 22 22 21 21 21 20 20 20 20 20 20 21 21 21 21 22 22 23 23 23 23 24 24 24
12 12 13 14 15 15 15 16 16 17 18 18 17 18 18 19 19 20 21 22 22 22 23 22 22 21 20 21 21 22 22 22 22 22 22 22 22 22 22 22 22 21 21 21 20 20 20 20 20 20 20 20 21 21 21 22 23 23 23 23 23 23 23
12 12 12 13 14 14 14 15 16 17 18 18 17 17 18 18 19 19 20 21 22 22 22 22 22 23 22 21 21 21 22 22 22 22 22 22 22 22 22 22 22 22 21 21 21 20 20 20 20 20 20 21 21 20 21 22 23 23 23 23 23 23 23
12 12 13 12 12 13 14 15 16 17 18 18 17 17 17 18 19 19 19 20 21 21 21 21 21 22 22 22 21 21 22 22 22 22 22 22 21 22 22 22 22 22 21 21 21 21 21 20 20 21 21 21 21 21 22 22 23 23 23 23 23 23 22
12 12 13 13 13 13 14 14 15 16 17 18 18 17 18 18 19 19 19 19 19 20 20 20 20 20 21 21 21 21 22 22 22 22 22 21 21 22 22 22 22 22 22 21 21 21 21 21 21 21 21 21 22 22 22 22 23 23 23 23 23 23 22
12 12 13 14 14 14 14 14 15 16 17 18 19 18 18 19 19 19 19 19 20 20 20 20 20 20 21 21 21 21 22 22 22 22 22 22 22 22 22 22 22 21 21 21 21 21 21 21 21 21 21 21 22 22 22 22 23 23 23 24 23 23 22
11 12 13 13 13 14 14 14 15 16 17 19 19 19 19 19 20 20 20 20 20 20 20 20 20 20 20 21 21 21 21 21 22 22 22 22 22 22 22 22 22 21 21 21 21 21 21 21 21 21 21 21 22 22 22 22 23 23 24 24 24 23 22
11 11 12 13 13 13 14 14 14 15 16 18 18 19 19 19 20 21 20 20 20 20 20 20 20 20 20 20 20 21 21 21 21 21 21 22 22 22 22 22 22 22 22 22 21 21 21 21 21 21 21 21 21 22 22 22 23 23 24 24 24 23 22
11 11 12 13 13 13 13 14 14 15 16 17 18 19 19 19 20 21 20 20 20 20 20 20 20 20 20 20 20 20 20 21 21 21 21 21 21 21 22 22 22 22 22 22 21 21 21 22 22 21 21 21 21 22 22 22 23 23 23 24 24 23 23
11 11 11 12 13 14 13 13 13 14 15 17 18 19 18 19 20 21 21 21 20 20 20 20 20 20 20 20 20 20 20 20 21 21 21 21 21 21 21 22 22 22 22 22 21 21 21 21 21 21 21 21 22 22 22 22 22 23 23 23 23 23 23
10 11 11 11 12 13 13 13 13 13 14 16 17 18 17 17 19 21 21 21 21 21 21 21 20 20 20 20 20 20 20 20 20 21 21 21 21 21 21 21 21 21 22 22 21 21 21 21 21 21 21 21 22 22 22 22 22 22 23 23 23 23 23
10 10 11 11 11 12 12 13 13 13 14 15 16 17 17 17 18 20 21 21 21 21 20 20 20 20 20 20 20 20 20 20 21 21 21 21 21 21 21 21 21 21 21 21 21 21 21 22 22 21 22 22 22 22 22 22 22 23 23 23 23 23 23
10 10 10 10 11 11 12 13 13 13 14 14 15 16 17 16 17 17 18 20 21 20 20 20 20 20 20 20 21 21 21 21 21 21 21 22 22 22 22 22 22 22 22 21 21 22 22 22 22 22 22 22 22 23 22 22 22 23 23 23 23 23 23
10 10 10 10 10 11 11 11 13 13 14 14 14 15 16 16 16 16 17 18 19 20 19 20 20 20 20 20 20 21 21 21 21 21 21 22 22 22 23 23 22 22 22 22 22 22 22 22 22 22 22 22 23 23 22 22 22 23 23 23 23 23 23
10 10 10 10 10 11 11 11 11 13 13 14 14 14 15 16 16 16 16 16 18 18 18 19 19 20 20 20 20 20 21 21 21 21 21 21 22 22 23 23 23 22 22 23 23 23 22 22 22 22 23 23 23 23 22 22 23 23 23 23 23 23 23
10 10 10 10 10 10 11 11 11 12 13 13 13 14 14 15 15 15 15 16 17 17 17 18 19 19 20 20 20 20 21 21 21 21 21 21 21 22 23 24 24 23 23 24 24 24 24 24 24 24 24 24 24 23 23 23 24 24 24 24 24 24 23
9 10 10 10 10 10 10 11 11 11 12 13 13 13 14 14 14 15 15 16 16 17 17 17 18 19 19 19 20 20 20 20 21 21 21 21 21 22 23 23 23 23 23 24 24 24 24 25 25 25 25 25 24 24 24 25 25 25 25 24 24 24 23
9 9 10 10 10 10 10 11 11 11 12 12 13 13 14 14 14 14 14 15 16 17 17 17 17 18 18 18 19 19 20 20 20 21 21 21 21 22 22 22 22 22 22 23 23 24 24 24 25 25 25 25 24 24 24 25 25 24 24 23 23 23 23
8 9 9 10 10 10 10 11 11 11 11 12 13 13 13 14 14 14 14 15 15 16 17 17 17 17 18 18 18 18 19 19 19 20 20 21 21 22 22 22 22 23 23 23 23 23 24 24 24 24 24 24 24 24 24 24 24 23 23 23 23 23 23
Height
1478 1481 1484 1487 1490 1492 1495 1498 1501 1504 1507 1509 1512 1514 1516 1519 1521 1524 1527 1529 1532 1535 1538 1541 1544 1547 1549 1551 1553 1556 1558 1561 1563 1565 1567 1569 1571 1572 1574 1576 1577 1579 1580 1581 1582 1583 1585 1586 1587 1588 1589 1589 1590 1591 1592 1592 1593 1594 1595 1595 1596 1596 1597
1474 1476 1480 1482 1485 1488 1491 1495 1498 1501 1504 1506 1509 1512 1514 1516 1518 1520 1524 1527 1530 1533 1536 1538 1541 1544 1547 1549 1552 1554 1556 1559 1561 1564 1566 1567 1569 1571 1573 1574 1576 1577 1579 1580 1581 1583 1584 1585 1586 1587 1588 1588 1589 1590 1591 1592 1592 1593 1594 1595 1595 1596 1597
1468 1470 1473 1476 1479 1482 1486 1491 1494 1497 1500 1503 1506 1509 1511 1513 1515 1518 1521 1524 1527 1531 1533 1536 1538 1541 1544 1547 1549 1552 1554 1556 1559 1561 1563 1565 1567 1569 1571 1573 1574 1576 1577 1579 1580 1582 1583 1584 1585 1586 1587 1587 1588 1589 1590 1591 1592 1592 1593 1594 1595 1595 1596
1462 1464 1467 1471 1474 1479 1483 1487 1491 1494 1497 1500 1502 1505 1508 1510 1513 1516 1519 1522 1525 1528 1530 1533 1536 1539 1542 1544 1547 1549 1551 1554 1556 1559 1561 1563 1566 1568 1569 1571 1572 1574 1576 1577 1579 1580 1581 1583 1584 1584 1585 1586 1587 1588 1589 1590 1591 1592 1592 1593 1594 1595 1596
1459 1462 1465 1469 1472 1475 1479 1482 1486 1489 1493 1496 1499 1503 1506 1509 1512 1515 1518 1520 1523 1525 1528 1531 1535 1537 1539 1542 1544 1547 1549 1551 1554 1556 1559 1561 1564 1566 1567 1569 1571 1572 1574 1576 1577 1579 1580 1581 1582 1583 1584 1585 1586 1587 1588 1589 1590 1591 1592 1592 1593 1594 1595
1457 1460 1463 1465 1468 1470 1473 1477 1481 1485 1489 1493 1496 1500 1504 1508 1511 1512 1515 1518 1521 1524 1527 1530 1532 1534 1536 1539 1541 1544 1547 1549 1552 1554 1557 1559 1562 1564 1565 1567 1569 1570 1572 1574 1575 1577 1578 1579 1581 1582 1583 1584 1585 1586 1587 1588 1589 1590 1591 1592 1592 1593 1594
1452 1456 1458 1461 1464 1466 1470 1474 1477 1482 1486 1490 1494 1498 1501 1505 1508 1510 1513 1516 1518 1521 1524 1526 1529 1531 1534 1536 1539 1542 1544 1547 1550 1552 1555 1557 1559 1561 1563 1565 1567 1568 1570 1572 1574 1575 1577 1578 1579 1580 1581 1583 1584 1585 1586 1586 1588 1589 1590 1591 1591 1592 1593
1448 1451 1453 1456 1460 1463 1467 1470 1474 1479 1484 1488 1492 1495 1498 1501 1505 1508 1510 1513 1516 1519 1521 1523 1526 1529 1532 1534 1537 1539 1542 1544 1547 1550 1552 1555 1557 1559 1561 1563 1565 1567 1569 1570 1572 1573 1575 1576 1577 1579 1580 1581 1582 1583 1584 1585 1586 1587 1588 1589 1590 1591 1592
1448 1449 1450 1453 1457 1460 1464 1467 1472 1476 1480 1485 1488 1491 1495 1498 1501 1504 1507 1510 1513 1515 1518 1521 1524 1527 1530 1532 1534 1537 1539 1542 1544 1547 1549 1552 1554 1556 1558 1560 1563 1565 1566 1568 1570 1571 1573 1574 1576 1577 1578 1579 1580 1581 1583 1584 1585 1586 1587 1587 1588 1589 1590
1450 1452 1454 1457 1460 1462 1465 1468 1471 1475 1478 1481 1485 1488 1492 1495 1498 1501 1504 1507 1510 1512 1515 1518 1522 1525 1527 1529 1532 1534 1537 1539 1541 1544 1546 1548 1551 1553 1555 1558 1560 1562 1564 1566 1567 1569 1571 1572 1574 1575 1576 1577 1578 1579 1580 1582 1583 1584 1585 1586 1587 1588 1589
1452 1456 1458 1461 1464 1466 1469 1470 1471 1473 1474 1477 1481 1484 1488 1491 1495 1498 1501 1504 1507 1509 1513 1516 1519 1522 1524 1527 1529 1532 1534 1536 1538 1540 1542 1545 1547 1549 1552 1555 1557 1560 1561 1563 1565 1567 1568 1570 1571 1572 1574 1575 1576 1577 1578 1580 1581 1582 1583 1584 1585 1586 1587
1458 1459 1461 1462 1465 1467 1470 1472 1474 1475 1476 1478 1480 1483 1486 1489 1492 1495 1498 1501 1504 1507 1510 1513 1516 1519 1521 1524 1527 1529 1531 1533 1535 1537 1539 1541 1544 1546 1549 1552 1554 1557 1558 1561 1563 1564 1566 1567 1569 1570 1571 1572 1574 1575 1576 1577 1579 1580 1581 1582 1583 1584 1585
1463 1463 1464 1464 1465 1467 1470 1473 1476 1479 1481 1482 1484 1486 1488 1490 1492 1494 1497 1499 1502 1505 1508 1511 1514 1516 1519 1521 1523 1526 1528 1530 1532 1534 1536 1539 1541 1544 1546 1549 1551 1553 1555 1558 1560 1561 1563 1564 1566 1567 1568 1570 1571 1572 1574 1575 1576 1577 1579 1580 1581 1582 1583
1468 1467 1467 1467 1467 1468 1469 1472 1474 1477 1480 1483 1485 1488 1490 1491 1493 1495 1497 1499 1501 1503 1506 1509 1511 1514 1516 1518 1520 1522 1524 1527 1529 1532 1534 1536 1538 1541 1543 1545 1548 1550 1552 1554 1556 1558 1560 1561 1563 1564 1565 1567 1568 1569 1571 1572 1573 1574 1576 1577 1579 1580 1581
1472 1472 1471 1471 1472 1471 1471 1471 1473 1475 1478 1481 1484 1486 1488 1490 1492 1495 1497 1498 1501 1502 1504 1507 1509 1511 1513 1515 1517 1519 1521 1524 1527 1529 1531 1534 1536 1538 1540 1542 1544 1546 1549 1550 1552 1554 1556 1558 1560 1561 1562 1563 1565 1567 1568 1569 1570 1571 1573 1574 1576 1577 1578
1479 1477 1476 1476 1477 1476 1475 1474 1473 1474 1477 1479 1482 1484 1486 1487 1489 1492 1494 1496 1499 1501 1503 1505 1507 1509 1510 1512 1513 1516 1519 1521 1524 1526 1528 1530 1532 1534 1537 1539 1541 1543 1545 1546 1548 1550 1552 1554 1556 1557 1558 1560 1562 1563 1564 1565 1567 1568 1570 1571 1573 1574 1575
1483 1482 1481 1480 1480 1480 1478 1476 1475 1475 1476 1477 1480 1482 1484 1486 1487 1489 1492 1494 1496 1498 1501 1503 1504 1506 1508 1509 1511 1514 1516 1518 1520 1523 1525 1527 1529 1531 1533 1535 1537 1539 1541 1543 1544 1546 1548 1550 1551 1553 1555 1556 1558 1559 1560 1562 1563 1565 1567 1568 1570 1571 1572
1487 1486 1484 1482 1482 1482 1481 1479 1477 1477 1477 1478 1479 1480 1482 1484 1486 1488 1490 1492 1494 1496 1498 1500 1501 1503 1505 1506 1509 1511 1513 1515 1517 1519 1521 1523 1525 1527 1529 1531 1533 1535 1537 1538 1540 1542 1544 1546 1547 1548 1551 1552 1554 1555 1556 1558 1559 1562 1564 1565 1567 1568 1568
1490 1488 1486 1485 1484 1484 1483 1482 1481 1480 1480 1480 1480 1480 1481 1482 1483 1485 1487 1489 1491 1493 1496 1498 1499 1501 1502 1503 1506 1507 1509 1512 1514 1516 1518 1519 1521 1523 1525 1527 1529 1530 1532 1534 1536 1538 1540 1541 1542 1544 1546 1548 1549 1551 1552 1553 1555 1558 1560 1561 1563 1564 1565
1493 1490 1488 1487 1487 1486 1485 1484 1483 1482 1481 1481 1481 1481 1481 1481 1481 1482 1484 1486 1488 1491 1493 1495 1499 1502 1502 1502 1503 1505 1507 1510 1511 1512 1514 1516 1518 1520 1522 1523 1525 1526 1528 1530 1532 1534 1535 1536 1538 1540 1542 1544 1545 1546 1548 1549 1551 1553 1555 1557 1559 1560 1561
1493 1491 1490 1489 1489 1490 1488 1485 1484 1483 1482 1482 1482 1481 1481 1481 1481 1481 1482 1484 1486 1489 1490 1492 1495 1499 1502 1503 1503 1504 1505 1507 1508 1510 1511 1513 1515 1517 1518 1520 1521 1523 1525 1527 1528 1529 1530 1532 1534 1536 1537 1539 1541 1542 1543 1544 1547 1549 1551 1553 1554 1556 1557
1495 1492 1492 1491 1491 1492 1491 1488 1486 1484 1483 1483 1482 1481 1481 1480 1480 1480 1480 1481 1483 1485 1487 1489 1490 1492 1495 1499 1502 1502 1502 1504 1505 1507 1509 1510 1512 1513 1515 1516 1518 1520 1522 1523 1525 1526 1527 1528 1530 1531 1533 1534 1536 1538 1538 1540 1542 1545 1546 1548 1550 1551 1552
1496 1493 1493 1493 1493 1492 1492 1490 1487 1485 1484 1484 1483 1481 1480 1479 1479 1479 1479 1480 1481 1482 1484 1487 1488 1488 1490 1493 1496 1498 1499 1501 1502 1504 1505 1507 1508 1509 1511 1512 1514 1516 1518 1520 1521 1523 1524 1525 1526 1527 1528 1530 1531 1532 1533 1535 1538 1540 1542 1544 1545 1546 1547
1497 1495 1494 1494 1494 1492 1491 1490 1487 1486 1485 1484 1484 1483 1480 1478 1478 1478 1479 1480 1480 1481 1483 1484 1486 1487 1488 1489 1492 1495 1496 1498 1499 1500 1502 1503 1504 1505 1507 1509 1511 1512 1514 1516 1517 1518 1520 1521 1523 1524 1524 1525 1526 1528 1529 1531 1533 1536 1537 1539 1540 1542 1542
1498 1496 1495 1494 1493 1492 1491 1490 1488 1487 1485 1483 1483 1483 1481 1479 1478 1479 1479 1480 1481 1481 1482 1482 1483 1485 1486 1487 1489 1492 1493 1495 1496 1497 1498 1499 1501 1502 1503 1505 1507 1509 1510 1512 1513 1515 1517 1518 1520 1520 1521 1521 1522 1524 1525 1526 1528 1531 1532 1534 1535 1537 1538
1499 1497 1496 1494 1493 1491 1490 1490 1488 1487 1485 1483 1482 1481 1480 1479 1479 1478 1478 1480 1481 1480 1480 1480 1480 1481 1483 1485 1487 1489 1490 1491 1492 1493 1495 1496 1497 1499 1500 1501 1503 1505 1506 1508 1509 1511 1513 1514 1516 1516 1517 1518 1519 1520 1521 1522 1524 1526 1527 1528 1530 1532 1534
1501 1499 1497 1495 1493 1491 1489 1488 1487 1486 1485 1484 1481 1479 1478 1478 1478 1477 1477 1478 1479 1479 1478 1478 1478 1479 1480 1481 1483 1484 1486 1487 1489 1490 1491 1493 1494 1496 1497 1498 1499 1500 1502 1503 1505 1507 1508 1510 1511 1512 1513 1514 1515 1516 1517 1517 1519 1520 1522 1524 1525 1527 1529
1499 1499 1497 1494 1491 1489 1487 1486 1485 1484 1482 1481 1479 1477 1476 1476 1476 1476 1476 1477 1477 1477 1477 1477 1477 1477 1478 1479 1479 1480 1481 1483 1485 1486 1488 1489 1491 1492 1493 1494 1496 1497 1498 1499 1501 1502 1504 1505 1507 1508 1509 1510 1511 1512 1512 1513 1514 1515 1517 1519 1521 1523 1524
1497 1497 1495 1492 1489 1487 1485 1484 1483 1482 1479 1478 1476 1475 1474 1473 1473 1474 1474 1475 1475 1474 1474 1474 1475 1475 1476 1477 1477 1477 1477 1479 1481 1482 1483 1484 1486 1488 1489 1490 1492 1493 1494 1495 1497 1498 1499 1500 1502 1503 1504 1505 1506 1507 1508 1509 1510 1511 1512 1514 1516 1518 1519
1496 1495 1495 1493 1490 1487 1484 1482 1481 1479 1478 1476 1474 1473 1472 1471 1471 1470 1471 1471 1471 1471 1471 1471 1472 1473 1473 1474 1475 1475 1475 1476 1477 1478 1479 1480 1481 1483 1484 1486 1487 1488 1490 1491 1492 1493 1495 1496 1497 1499 1499 1500 1501 1501 1503 1504 1505 1506 1508 1509 1511 1513 1514
1495 1494 1493 1492 1490 1487 1484 1481 1478 1477 1475 1474 1472 1471 1470 1469 1469 1468 1468 1467 1468 1469 1469 1469 1470 1470 1471 1471 1472 1472 1472 1473 1474 1475 1475 1476 1477 1478 1479 1481 1483 1484 1485 1486 1488 1489 1490 1491 1492 1493 1494 1495 1495 1496 1497 1499 1501 1502 1503 1504 1506 1508 1509
1494 1493 1491 1490 1489 1486 1483 1479 1477 1474 1472 1471 1470 1470 1469 1468 1467 1467 1466 1465 1466 1467 1468 1468 1468 1468 1468 1468 1468 1468 1469 1469 1469 1470 1471 1472 1474 1474 1475 1476 1478 1479 1480 1482 1483 1483 1484 1485 1487 1488 1489 1490 1490 1491 1493 1495 1496 1497 1498 1499 1501 1503 1504
1492 1491 1490 1488 1486 1485 1482 1479 1476 1473 1470 1469 1469 1468 1468 1468 1467 1465 1465 1464 1464 1464 1464 1464 1464 1464 1464 1465 1465 1465 1465 1465 1465 1466 1467 1468 1469 1470 1471 1472 1473 1474 1475 1476 1477 1478 1479 1480 1482 1483 1484 1484 1485 1486 1489 1491 1492 1492 1493 1494 1496 1497 1498
1490 1488 1487 1486 1485 1483 1481 1479 1476 1474 1471 1469 1468 1467 1466 1465 1465 1464 1463 1462 1462 1461 1460 1460 1460 1460 1460 1460 1460 1461 1461 1461 1462 1462 1463 1464 1465 1465 1466 1467 1468 1469 1469 1470 1471 1472 1473 1475 1476 1477 1478 1479 1480 1483 1485 1486 1486 1486 1487 1488 1490 1492 1494
1486 1485 1484 1484 1483 1481 1480 1478 1476 1474 1472 1470 1468 1466 1464 1462 1462 1462 1461 1460 1460 1458 1457 1456 1456 1455 1455 1455 1455 1456 1456 1457 1458 1459 1459 1460 1460 1460 1461 1461 1463 1463 1463 1464 1465 1467 1468 1470 1471 1472 1473 1475 1476 1478 1480 1480 1480 1480 1482 1484 1486 1487 1489
1483 1482 1481 1480 1480 1479 1478 1477 1475 1473 1471 1469 1467 1465 1463 1461 1460 1459 1459 1458 1457 1455 1454 1453 1452 1452 1451 1451 1451 1451 1452 1453 1454 1455 1456 1456 1455 1455 1454 1455 1456 1457 1458 1459 1461 1462 1464 1466 1467 1468 1470 1471 1472 1473 1474 1474 1475 1477 1480 1481 1482 1483 1484
1480 1479 1477 1477 1476 1475 1475 1475 1474 1472 1470 1468 1466 1464 1462 1460 1458 1457 1457 1456 1454 1452 1451 1450 1450 1449 1448 1448 1448 1448 1448 1449 1450 1451 1452 1451 1451 1450 1450 1450 1451 1452 1453 1455 1456 1458 1460 1461 1462 1464 1466 1467 1468 1469 1470 1471 1472 1475 1476 1477 1479 1480 1481
1476 1476 1475 1474 1473 1472 1472 1472 1471 1470 1468 1466 1464 1462 1461 1459 1457 1455 1454 1452 1450 1449 1449 1448 1448 1447 1446 1445 1445 1445 1445 1445 1446 1447 1447 1447 1447 1447 1446 1446 1447 1447 1448 1450 1451 1453 1454 1455 1457 1460 1462 1463 1464 1465 1466 1467 1469 1471 1473 1474 1476 1478 1478
Wind_Speed
36 38 40 41 42 44 44 45 46 46 47 49 51 52 52 51 51 50 48 46 43 41 39 39 39 38 37 37 36 36 35 34 33 34 34 34 32 30 27 25 25 24 24 24 23 21 19 18 18 18 17 17 16 14 14 14 14 14 14 13 12 11 9
36 39 40 42 43 45 46 46 46 47 48 49 51 52 52 52 52 52 50 48 45 43 41 40 40 40 39 37 37 37 36 36 35 34 34 35 34 32 29 27 25 25 24 25 24 22 21 20 20 19 18 17 16 15 14 14 14 14 14 13 12 12 11
39 41 42 44 46 46 47 47 47 47 48 49 51 52 53 53 53 53 52 50 47 44 42 41 41 41 40 39 38 37 38 37 37 36 35 35 35 33 31 29 27 26 25 25 25 23 22 21 21 20 19 17 16 15 15 15 15 14 14 13 13 12 12
39 43 45 46 47 46 46 47 48 48 48 49 51 53 53 53 53 53 52 50 48 46 45 43 42 41 41 41 40 39 39 39 39 38 37 36 35 34 33 31 29 27 27 26 25 24 23 22 22 21 20 19 18 17 16 16 16 15 15 15 14 13 12
38 40 41 42 44 46 48 49 49 50 49 50 50 52 53 52 52 52 52 51 49 47 45 44 42 42 42 42 41 40 39 40 40 40 39 38 36 35 34 33 30 28 27 26 25 25 24 23 22 21 20 20 19 19 18 18 17 16 16 16 15 14 13
36 37 39 42 43 46 49 50 50 51 51 50 50 50 51 51 52 52 52 52 51 48 46 45 43 43 43 42 42 41 40 40 41 41 40 39 38 37 35 34 32 30 28 27 26 25 24 23 22 21 20 20 19 19 20 19 19 18 18 18 17 16 15
35 38 40 43 45 46 48 49 50 50 51 49 48 48 49 51 52 52 52 52 51 50 49 48 46 44 44 43 41 41 41 41 40 41 42 41 40 39 37 35 34 32 29 28 27 25 24 24 23 22 21 20 20 19 20 20 19 19 19 19 18 18 18
36 41 43 43 45 45 46 48 49 49 49 48 47 47 48 50 51 51 51 52 51 51 51 50 48 46 45 43 42 41 41 41 40 41 42 42 42 41 40 38 36 34 32 31 29 27 26 25 24 23 23 22 21 20 20 20 20 20 19 19 19 18 18
33 37 43 44 44 45 45 47 48 48 48 49 48 48 48 49 51 51 52 52 51 51 51 50 49 47 45 44 43 41 41 41 41 41 42 43 44 44 42 41 39 37 36 34 32 31 29 27 26 25 24 24 23 22 21 21 20 21 21 20 19 19 18
25 26 29 32 34 37 39 42 44 45 47 48 48 48 48 49 50 51 51 51 51 51 51 51 49 48 46 45 43 41 41 41 41 41 42 43 45 46 44 43 42 41 39 37 36 34 32 30 29 28 27 26 26 25 24 23 22 22 22 21 21 20 20
4 11 15 18 21 25 30 35 39 44 47 49 50 49 49 49 49 50 51 51 52 52 51 50 50 49 48 46 44 42 41 41 41 42 42 43 45 46 46 46 45 44 43 41 40 38 36 34 33 31 30 30 29 28 28 26 25 24 23 22 22 22 22
26 17 9 7 12 17 21 26 32 37 41 44 48 49 48 48 49 49 50 51 51 51 51 50 50 49 48 47 46 44 42 41 41 42 42 43 44 45 46 47 47 47 46 45 43 42 40 38 37 35 34 33 32 31 30 29 28 27 26 25 24 23 23
36 33 27 20 12 9 11 16 22 28 32 34 38 41 42 44 45 46 48 49 50 50 50 50 49 49 48 48 47 46 44 42 41 40 40 41 42 44 45 46 47 47 47 47 46 45 44 42 41 39 38 36 35 34 33 32 32 30 29 27 26 26 25
39 38 35 31 25 18 11 9 13 20 26 30 32 34 36 38 40 42 44 45 47 48 48 49 49 48 48 48 48 47 45 43 41 39 38 38 39 41 43 45 46 46 47 47 48 47 46 45 43 42 40 39 38 37 36 35 35 33 32 30 29 28 27
42 41 38 35 32 27 22 16 10 11 18 25 29 32 35 36 37 38 40 42 44 45 46 47 47 48 48 48 48 47 45 44 42 41 39 37 37 38 40 42 45 46 46 47 47 47 47 46 45 44 43 41 40 39 38 37 37 36 34 32 31 29 29
39 41 38 35 33 31 27 23 17 12 11 16 22 28 32 34 36 37 38 39 40 42 44 45 45 47 48 48 48 47 46 44 43 42 41 40 38 37 37 38 41 43 46 47 47 47 47 47 47 47 46 44 42 41 40 39 38 37 35 34 32 31 30
35 38 38 35 33 32 29 26 21 16 11 9 12 19 25 29 32 34 36 38 39 40 42 43 44 46 47 48 48 47 46 45 44 43 42 41 39 38 37 37 38 39 42 45 46 47 47 48 48 48 48 47 46 44 42 41 39 38 36 35 34 33 32
33 36 36 35 34 33 31 27 23 21 17 12 7 8 16 23 26 28 31 34 36 38 39 42 44 45 46 47 47 47 46 46 45 44 43 41 40 38 38 37 38 38 39 41 43 45 46 48 48 49 48 48 48 47 45 44 41 39 38 36 35 34 34
29 31 32 33 33 33 31 28 23 21 21 17 11 7 7 14 20 24 27 30 33 34 35 37 40 43 45 46 46 47 47 46 45 44 43 42 40 38 38 38 38 39 39 40 41 42 44 46 47 48 48 48 48 48 47 45 42 41 39 38 37 36 36
26 27 27 28 29 30 30 28 23 19 18 18 14 9 5 8 15 20 25 28 30 33 35 34 33 36 41 44 45 46 45 45 45 45 43 42 41 40 39 39 38 38 38 39 39 41 43 44 45 46 46 47 47 47 46 45 42 41 40 39 38 37 37
26 25 25 24 25 26 27 28 26 21 18 18 14 10 7 2 7 14 20 26 28 30 34 36 34 34 36 40 43 44 44 45 45 44 44 42 42 41 40 39 39 38 37 38 38 39 40 41 42 44 44 45 45 46 46 44 42 40 40 39 38 38 38
25 24 24 23 23 23 24 24 25 24 21 18 14 9 8 6 1 5 13 21 25 26 30 33 35 36 36 38 41 43 44 44 45 44 44 43 43 42 41 40 39 38 38 38 38 38 38 38 39 41 42 43 43 45 45 43 41 40 39 38 38 38 39
23 21 21 22 22 22 21 22 23 24 22 20 16 13 11 7 4 2 3 11 18 22 25 28 31 34 34 36 40 43 43 43 44 44 44 44 44 44 42 41 40 39 38 39 39 39 39 37 37 37 39 41 42 43 43 42 40 39 38 37 37 38 39
22 20 19 20 22 22 21 21 22 23 25 23 21 19 15 10 5 4 3 2 10 15 18 21 25 29 31 34 38 42 43 43 44 44 44 45 45 44 43 42 41 40 40 40 40 40 39 38 36 35 36 37 39 41 42 41 39 38 37 37 37 38 40
21 19 17 17 20 21 21 21 21 22 24 25 24 22 19 12 7 6 6 3 4 8 10 12 15 20 27 33 37 40 41 41 42 43 44 45 45 45 44 43 42 42 41 41 41 40 39 39 38 37 36 35 36 37 40 40 39 38 38 37 37 38 39
20 19 17 17 19 21 21 20 21 21 22 25 26 25 22 17 11 10 10 8 6 4 4 5 6 10 16 25 32 37 39 40 41 42 43 45 45 45 44 43 43 42 42 42 42 41 40 40 40 40 39 37 36 36 37 39 39 38 38 37 37 38 38
19 18 17 17 18 20 21 20 20 20 20 24 27 27 24 21 17 14 14 13 11 9 6 5 6 7 9 13 18 25 31 35 38 41 43 44 44 44 44 44 43 43 43 42 42 42 42 41 41 41 40 39 38 37 37 37 37 38 38 38 38 38 38
20 18 18 16 15 17 20 20 19 19 18 21 24 26 26 25 23 19 17 16 15 14 12 11 11 11 11 10 11 14 18 22 27 31 36 40 43 45 45 44 44 44 43 43 43 43 42 42 42 42 42 41 40 40 39 38 37 37 38 38 38 38 38
21 20 20 18 16 16 19 21 19 18 17 19 21 23 24 26 27 25 20 17 16 18 18 17 17 17 16 15 14 14 14 15 17 19 23 29 35 40 44 44 44 44 44 43 43 43 43 43 43 43 43 42 42 41 41 40 39 38 38 38 38 38 38
21 21 20 20 18 17 18 21 21 19 17 17 19 21 21 23 26 27 26 22 19 20 22 22 21 21 20 20 19 19 18 17 16 17 18 21 24 30 37 41 43 44 44 44 44 44 44 44 44 44 44 44 43 42 41 41 40 40 39 38 38 38 39
19 20 20 20 20 18 18 19 21 21 19 17 18 20 21 21 23 26 28 26 23 22 23 24 24 23 24 24 24 23 22 21 19 19 20 20 21 24 29 35 39 42 43 44 44 44 45 45 45 45 45 44 44 43 42 42 41 40 39 39 39 39 39
17 18 20 22 21 19 18 18 19 21 21 18 16 18 20 20 21 23 25 26 25 24 23 23 24 25 25 26 27 26 25 24 23 22 22 23 23 24 26 30 35 39 42 43 44 45 45 46 46 45 45 45 44 44 43 43 42 42 41 40 40 40 40
18 17 19 21 20 19 18 17 17 19 21 20 17 17 18 19 20 21 23 25 27 26 25 24 25 26 27 27 27 27 26 24 23 23 24 24 25 26 27 29 33 38 41 43 44 45 45 46 46 46 47 46 45 44 44 43 43 43 43 42 42 41 41
19 19 19 19 19 18 18 17 16 16 18 19 18 17 18 19 19 20 22 24 27 28 27 26 26 27 28 28 27 27 26 25 24 24 24 25 25 27 29 30 32 37 40 42 43 44 45 46 46 46 47 46 45 44 44 43 44 44 44 43 42 41 41
20 21 21 19 18 18 18 17 16 14 15 16 17 18 18 19 19 20 21 23 26 27 28 28 28 28 29 28 28 28 26 24 23 23 24 25 25 27 30 31 32 35 38 39 40 41 42 43 43 42 43 44 45 44 43 43 41 40 40 40 40 40 41
21 22 23 21 18 18 19 17 16 15 14 14 15 17 18 18 19 20 20 22 24 26 28 29 29 30 30 28 27 27 27 25 23 23 24 25 25 27 29 31 32 33 36 38 38 39 39 40 39 38 38 41 43 42 40 38 35 34 35 38 39 40 40
23 22 23 22 19 19 20 18 17 16 14 13 13 15 17 18 19 20 20 21 22 25 27 29 30 31 31 29 27 26 26 25 23 21 22 23 24 26 27 29 31 33 35 37 38 38 39 40 39 38 39 41 42 41 39 37 36 36 38 40 39 40 40
24 21 22 22 20 20 21 20 18 17 15 13 13 14 16 18 19 20 20 21 21 23 25 26 28 29 29 29 27 25 24 23 21 19 19 20 22 24 25 26 29 32 34 37 39 40 41 41 41 41 41 42 42 42 41 40 39 39 40 40 39 39 39
Wind_Direction
203 204 205 206 206 205 205 204 204 205 205 205 205 206 206 206 208 210 211 213 214 216 217 217 217 218 220 219 217 216 216 215 214 213 215 218 220 223 224 222 221 220 220 220 218 215 215 215 217 220 219 217 218 218 217 218 223 224 219 213 207 207 211
202 205 205 206 206 206 206 205 205 205 206 207 206 206 206 206 208 209 212 213 215 216 217 218 219 219 221 221 219 217 216 215 215 214 215 217 220 222 223 224 224 223 223 223 222 219 217 216 217 219 220 219 220 222 223 224 227 230 230 225 217 216 218
203 204 205 206 207 206 206 205 205 206 206 207 207 207 207 208 209 211 212 214 215 216 217 219 221 221 221 222 221 219 218 216 216 216 216 217 218 220 221 224 227 227 226 224 222 221 219 216 217 218 219 220 221 223 226 228 231 235 236 235 230 224 223
204 205 205 207 207 206 206 206 206 206 207 208 208 208 209 209 210 212 213 215 216 216 217 219 221 223 223 223 223 222 220 218 217 218 219 219 219 220 221 223 225 228 227 225 222 222 222 220 218 219 220 222 222 224 227 229 233 237 239 240 239 233 228
206 207 206 206 206 206 206 206 206 207 207 208 209 210 210 210 210 212 213 216 217 219 219 220 221 223 224 225 226 225 222 220 219 219 220 221 221 221 222 223 225 226 227 226 223 222 224 223 220 220 222 223 225 226 228 231 233 236 239 240 242 241 236
206 206 206 206 206 206 206 206 207 207 207 208 209 210 210 210 210 212 213 215 217 219 220 221 222 223 225 226 227 228 227 223 221 221 222 223 223 223 223 224 225 226 226 225 224 222 222 222 220 222 224 226 229 229 230 232 233 233 235 238 242 245 244
205 205 206 207 207 207 207 206 206 207 207 207 208 209 209 210 211 212 213 214 216 218 219 221 222 224 225 227 228 229 230 228 225 223 223 223 224 225 226 226 227 228 227 226 226 225 223 222 222 224 228 230 231 232 233 234 233 233 233 235 239 243 245
207 206 207 208 208 207 207 206 205 205 206 206 207 208 209 210 211 212 213 214 216 217 219 221 222 224 226 227 228 230 231 231 229 227 225 224 224 226 228 228 229 230 229 228 229 229 228 227 226 227 230 232 234 236 237 238 236 235 234 236 238 241 244
212 210 210 209 208 207 207 206 205 204 204 205 206 207 209 210 210 212 214 215 215 216 219 221 223 225 226 228 229 231 232 232 232 230 228 227 226 226 228 230 231 232 232 232 232 233 233 232 231 231 232 235 238 239 241 243 242 240 239 240 240 242 244
218 215 214 212 209 208 208 207 205 204 204 204 206 207 209 210 211 212 214 215 215 217 219 221 222 224 226 228 230 232 233 233 233 232 230 229 228 227 228 229 232 233 234 235 236 236 237 236 235 235 235 237 239 242 244 246 247 246 245 244 244 244 245
177 202 208 211 212 211 210 209 206 205 205 205 205 207 209 210 211 212 213 215 216 218 219 221 222 223 225 227 230 232 233 234 234 234 232 231 230 229 229 229 231 233 235 236 237 239 240 240 239 239 238 238 240 243 246 247 249 250 249 249 248 247 247
49 59 86 153 192 206 211 213 212 209 208 207 206 207 208 210 211 212 214 215 217 218 219 220 221 222 224 226 229 231 233 234 234 235 235 233 232 231 231 231 231 233 235 237 238 240 241 242 242 242 242 242 242 244 246 248 251 252 252 253 251 250 250
43 47 51 65 95 145 185 204 212 215 214 212 210 210 210 211 212 213 214 215 217 218 219 220 221 222 223 226 228 231 233 234 235 236 237 237 236 234 234 234 234 234 236 237 238 240 241 242 243 244 244 245 245 246 247 248 250 252 253 254 254 253 253
36 41 42 48 58 70 92 143 190 208 214 216 215 214 214 214 215 215 216 217 217 218 219 220 220 221 223 225 228 231 233 235 236 237 238 239 239 238 237 237 237 238 238 239 239 240 242 243 244 245 245 246 246 247 248 250 251 252 253 253 254 255 256
29 31 33 36 41 47 57 72 106 166 198 211 215 215 216 217 217 217 218 219 219 219 220 220 220 221 223 225 228 231 234 235 236 237 238 239 240 241 241 240 240 240 241 241 242 243 243 244 245 247 247 247 248 248 249 251 251 252 252 253 253 255 257
27 26 27 29 31 36 43 52 69 104 153 188 204 212 215 217 218 219 219 220 221 222 222 221 221 222 223 225 229 232 234 235 236 238 238 239 240 242 242 242 242 242 242 243 244 245 246 246 247 248 249 250 250 250 250 251 251 252 252 253 253 254 256
26 25 24 25 27 29 33 40 53 70 92 131 174 199 209 214 218 219 220 221 221 223 224 223 223 223 224 227 230 232 234 235 236 237 239 240 241 242 243 244 244 244 244 245 245 246 247 248 249 249 250 251 252 252 252 252 251 252 252 253 253 254 255
23 24 23 22 21 24 27 30 36 44 51 65 99 158 193 207 213 216 218 220 222 224 225 225 225 225 226 228 230 232 234 235 236 237 239 240 241 243 244 245 245 245 246 246 246 247 247 248 249 250 251 252 253 254 254 254 253 253 253 253 253 254 255
22 23 23 21 17 18 22 24 24 27 34 42 54 85 150 186 199 207 211 214 218 220 221 222 224 226 229 230 232 233 234 235 236 237 239 240 242 243 244 245 245 246 246 247 248 248 248 249 250 250 251 252 253 254 255 256 255 254 254 254 253 254 255
21 22 21 20 16 14 16 19 19 16 19 28 39 57 93 162 185 197 206 211 216 220 221 222 224 227 230 232 232 233 234 235 237 238 240 241 242 243 244 245 246 247 247 248 248 248 249 250 250 251 251 251 252 254 255 256 256 255 255 255 254 254 255
15 17 16 13 12 12 12 13 13 9 7 8 15 36 51 93 180 193 203 209 214 221 226 229 231 231 232 233 233 234 234 235 237 239 241 242 242 243 244 246 247 248 248 249 249 250 250 250 250 251 252 252 252 253 254 255 255 256 256 256 256 256 256
7 10 9 4 2 6 11 10 5 4 6 1 351 357 18 22 71 189 207 212 214 218 225 231 233 234 233 232 234 235 236 237 238 239 241 242 242 243 244 246 247 249 249 249 249 251 251 250 250 251 252 252 252 253 253 254 255 256 256 257 257 257 258
3 2 359 356 354 357 4 6 1 359 1 360 352 346 348 355 24 77 201 217 216 217 223 228 232 233 231 230 233 237 238 238 239 240 241 241 241 243 245 246 248 250 250 249 250 250 250 250 251 252 252 252 252 252 253 254 255 255 256 256 257 258 258
358 357 350 345 344 346 351 355 355 353 350 350 354 354 347 336 334 11 29 204 210 214 222 228 232 234 232 231 234 239 241 241 242 242 242 242 242 244 246 247 249 250 251 251 251 252 252 252 252 253 253 253 253 253 254 255 256 256 256 257 257 258 258
350 352 346 337 331 333 338 342 342 341 338 337 344 352 353 343 315 309 330 323 223 213 216 226 235 239 239 237 237 238 241 244 245 245 244 244 245 246 247 248 250 251 251 251 252 253 253 253 252 253 254 255 255 255 255 256 256 256 256 256 256 257 258
345 345 341 335 329 325 325 328 331 330 325 323 329 339 347 347 333 313 310 304 284 260 239 228 229 238 243 242 239 239 241 243 245 245 246 247 248 249 250 250 251 251 251 251 252 253 253 253 252 253 255 256 256 257 256 257 256 256 255 254 254 256 257
339 339 335 332 332 330 325 322 324 324 317 313 317 326 336 340 338 331 321 307 292 285 282 271 252 238 240 244 243 243 244 245 247 247 248 249 250 251 251 252 252 252 252 252 252 252 252 252 252 253 255 255 256 257 258 258 257 256 255 254 254 254 255
336 335 333 328 326 331 331 326 323 322 316 310 311 317 326 331 329 327 324 315 304 294 285 279 273 265 261 262 259 252 248 248 250 251 252 253 252 251 251 253 253 252 252 252 251 251 251 252 252 252 254 254 255 257 258 259 259 258 256 255 254 254 254
333 332 335 334 327 324 327 328 329 327 321 314 309 309 316 321 319 317 317 315 307 300 292 285 280 277 275 271 266 261 257 255 256 258 258 258 255 253 253 253 252 252 251 250 249 249 250 251 251 251 252 253 254 256 257 258 260 260 258 256 255 255 255
328 328 331 335 330 321 318 320 325 329 328 319 311 311 316 319 315 312 312 311 306 301 296 290 283 279 276 272 267 263 262 261 262 263 263 262 259 256 255 253 252 251 250 249 248 248 248 249 249 248 249 251 253 255 256 257 258 260 260 259 257 256 255
321 323 325 330 329 322 315 314 317 323 327 323 313 309 313 317 315 311 309 307 303 299 295 288 282 278 274 271 270 267 264 263 263 264 266 265 262 258 255 253 251 249 248 247 246 246 246 247 247 247 248 249 252 254 255 256 257 259 261 260 259 257 257
311 316 321 325 326 321 316 314 313 314 320 324 319 308 305 311 315 313 310 307 301 297 294 288 282 279 275 272 271 270 269 269 267 265 266 266 264 260 256 252 250 249 247 246 245 245 246 246 246 246 247 249 251 254 254 255 256 258 260 260 260 259 257
300 306 313 319 322 321 319 318 315 311 313 319 322 315 308 309 312 313 313 310 304 300 298 295 288 282 278 277 276 275 276 276 274 272 270 268 265 262 258 253 249 247 246 245 244 244 244 244 243 244 246 248 251 252 251 252 255 257 258 258 259 259 258
293 296 302 311 316 316 316 319 318 311 308 313 319 319 314 311 310 312 312 310 307 305 304 302 298 291 286 284 284 283 282 280 278 277 276 273 269 264 259 255 250 245 244 245 245 245 244 243 243 244 246 249 250 249 249 251 255 257 257 257 259 261 259
287 289 293 302 310 311 311 315 316 311 306 308 313 318 319 316 312 310 310 309 307 307 308 309 306 300 293 288 287 288 288 284 279 277 278 278 276 269 261 257 254 249 247 247 248 248 248 248 249 250 252 252 251 249 249 252 257 259 260 261 263 264 263
283 284 286 292 302 306 304 306 310 310 307 305 307 312 318 320 317 313 312 310 309 309 310 311 311 307 302 296 291 289 292 290 284 278 277 279 281 277 268 260 256 253 251 250 251 251 252 252 254 257 258 256 255 255 255 258 264 267 266 264 265 266 267
279 281 282 284 292 300 299 298 302 307 305 302 304 306 310 315 319 319 316 312 311 310 310 310 310 308 306 303 297 293 293 293 290 285 281 279 281 281 274 263 255 252 251 251 251 252 254 254 256 259 259 258 258 259 261 264 267 266 264 263 263 266 268
276 276 275 275 281 293 297 293 294 301 305 303 300 303 305 309 316 322 322 318 314 311 310 308 307 305 304 303 302 297 293 293 293 290 284 280 281 281 274 263 255 253 252 250 249 249 251 253 254 254 255 256 257 258 260 262 264 263 262 262 262 265 267